Location: Courçay
(47.2523°N, 0.8761°E)
Time: 20:35:20
(UTC+00:00)

Cosmos 968 Rocket - Pass Details

Date: 18 November 2025
Orbit: 735 x 766 km, 74.0° (Epoch: 10 December)

Event Time Altitude Azimuth Distance (km) Brightness Sun altitude
Rises 18:14:46 0° 174° (S) 3,173 6.7 -19.6°
Reaches altitude 10° 18:17:17 10° 165° (SSE) 2,260 5.8 -20.1°
Enters shadow 18:20:21 28° 135° (SE) 1,382 4.5 -20.6°
